Location: Iesi
(43.5167°N, 13.2333°E)
Time: 03:35:38
(UTC+00:00)

GEOS 3 Rocket - Pass Details

Date: 08 August 2020
Orbit: 770 x 849 km, 115.0° (Epoch: 27 September)

Event Time Altitude Azimuth Distance (km) Brightness Sun altitude
Rises 23:46:40 0° 40° (NE) 3,418 7.7 -30.2°
Reaches altitude 10° 23:49:04 10° 45° (NE) 2,480 6.8 -30.1°
Enters shadow 23:53:16 46° 83° (E) 1,135 4.4 -30.0°
